Location: Hamburg
(53.5500°N, 10.0000°E)
Time: 15:43:25
(UTC+01:00)

Daily predictions for brighter satellites

Satellite Brightness Start Highest point End
(mag) Time Altitude Azimuth Time Altitude Azimuth Time Altitude Azimuth
CENTAUR R/B 2.8 17:17:13 10° SSW 17:23:27 70° SE 17:30:36 10° NE
Lacrosse 5 2.1 17:20:43 10° W 17:25:47 66° NNW 17:30:52 10° ENE
Cosmos 1515 Rocket 3.6 17:22:02 10° N 17:26:32 78° ENE 17:31:00 10° SSE
Cosmos 1900 4.3 17:22:49 10° NW 17:27:46 72° NE 17:32:46 10° SE
Cosmos 1943 Rocket 3.8 17:27:32 10° NNW 17:31:02 17° NNE 17:34:33 10° ENE
Tsikada Rocket 4.1 17:24:40 10° S 17:31:05 84° E 17:37:33 10° NNE
Cosmos 2219 Rocket 2.4 17:28:57 10° S 17:34:24 54° ESE 17:39:53 10° NE
Cosmos 2084 3.8 17:33:23 10° SSW 17:36:59 39° SE 17:40:29 10° ENE
Cosmos 2058 3.9 17:36:15 10° SSE 17:39:43 27° E 17:43:12 10° NNE
Cosmos 1634 Rocket 4.0 17:33:52 10° N 17:40:06 83° ENE 17:46:17 10° SSE
Cosmos 2333 Rocket 2.5 17:34:43 10° S 17:40:07 48° ESE 17:45:32 10° NE
Aureole 2 Rocket 4.0 17:38:45 10° SSE 17:41:58 25° ESE 17:45:23 10° NE
Cosmos 2322 Rocket 3.7 17:37:05 10° W 17:42:02 29° NW 17:46:58 10° NNE
Cosmos 2278 Rocket 2.8 17:36:30 10° NW 17:42:09 65° WSW 17:47:46 10° SSE
Timation 1 Rocket 4.4 17:37:09 10° NNW 17:43:13 84° NE 17:49:15 10° SE
Cosmos 332 Rocket 3.8 17:38:27 10° SSW 17:43:17 72° ESE 17:48:11 10° NNE
MSX 3.8 17:38:32 10° SSE 17:44:16 84° ENE 17:50:04 10° NNW
Cosmos 44 4.0 17:40:43 10° S 17:45:32 40° ESE 17:49:55 11° NE
CZ-2C R/B 2.8 17:41:23 10° S 17:46:15 69° WSW 17:51:01 10° NNW
MOS 1 4.5 17:40:37 10° SSE 17:46:17 81° WSW 17:52:01 10° NNW
Cosmos 1500 Rocket 3.6 17:42:09 10° S 17:46:25 60° E 17:50:46 10° NNE
CZ-4 R/B 4.4 17:46:14 10° SSE 17:50:23 85° ENE 17:54:34 10° NNW
Sich 1 4.5 17:50:33 10° SE 17:53:37 18° E 17:56:40 10° NE
ALOS 3.4 17:50:40 10° ESE 17:54:12 22° ENE 17:57:44 10° N
Lacrosse 5 rocket 3.8 17:51:30 10° W 17:54:28 23° SW 17:57:32 10° S
Blok-2BL 3.8 17:51:22 10° NW 17:54:33 39° NNE 17:57:16 13° E
COSMOS 2441 4.4 17:51:04 10° SSE 17:55:55 88° ENE 18:00:47 10° NNW
Cosmos 1626 3.5 17:56:03 10° SE 17:58:46 19° E 18:00:25 15° NE
Cosmos 1633 Rocket 4.3 18:00:19 10° SE 18:03:30 20° E 18:05:40 14° NE
COSMOS 2455 4.3 18:00:33 10° WNW 18:05:30 25° NNW 18:10:26 10° NE
Cosmos 1726 2.8 18:02:52 10° NNW 18:06:36 58° W 18:10:19 10° S
Cosmos 841 Rocket 3.8 18:03:31 10° SW 18:08:47 70° WNW 18:14:04 10° NNE
Cosmos 2369 Rocket 3.0 18:04:42 10° NNW 18:09:47 32° NE 18:13:35 16° E
SMAP 4.2 18:05:53 10° S 18:10:23 48° W 18:14:56 10° NNW
Meteor 1-27 4.4 18:05:16 10° NNW 18:11:07 86° W 18:16:59 10° S
Cosmos 371 Rocket 3.3 18:06:28 10° SSW 18:11:17 89° WNW 18:16:09 10° NNE
Cosmos 1328 3.7 18:07:59 10° S 18:11:56 89° E 18:15:55 10° NNE
Cosmos 2237 Rocket 2.2 18:06:38 10° SSW 18:12:11 63° ESE 18:17:40 11° NE
Cosmos 1455 2.5 18:09:04 10° N 18:12:41 41° ENE 18:16:19 10° SE
Spot 2 Rocket 4.2 18:08:23 10° ESE 18:12:44 30° ENE 18:17:05 10° N
Cosmos 1674 4.3 18:12:12 10° SW 18:15:47 37° WNW 18:19:26 10° N
Thor Agena Rocket 3.5 18:10:50 10° NNE 18:16:09 80° ESE 18:21:20 10° SSW
Helios 1A 4.4 18:16:44 19° NE 18:16:44 19° NE 18:19:37 10° NNE
USA 116 3.4 18:13:44 10° N 18:16:58 69° WNW 18:20:03 10° SSW
Iridium 4 Rocket 4.2 18:14:22 10° SE 18:17:27 21° E 18:17:27 21° E
CZ-4C R/B 3.3 18:12:12 10° NW 18:18:04 38° NNE 18:22:38 19° ENE
Meteor 2-10 4.2 18:14:12 10° NNW 18:19:17 74° W 18:24:29 10° S
SL-16 R/B 2.8 18:15:28 10° S 18:20:35 37° ESE 18:24:13 18° NE
Cosmos 1707 Rocket 3.4 18:17:41 10° N 18:22:01 68° ENE 18:26:21 10° SSE
COSMOS 2428 3.4 18:16:28 10° SW 18:22:03 53° NW 18:27:40 10° NNE
COSMO-SKYMED 1 2.7 18:19:43 10° NNE 18:24:01 55° E 18:28:17 10° S
Cosmos 1703 3.5 18:22:43 10° SSE 18:26:27 45° E 18:29:41 13° NNE
Cosmos 2279 Rocket 4.1 18:20:29 10° NNW 18:26:43 79° W 18:32:56 10° S
CZ-4 R/B 3.8 18:23:30 10° SSW 18:26:45 25° W 18:30:03 10° NW
Cosmos 2297 4.3 18:21:15 10° NW 18:26:53 61° WSW 18:32:31 10° SSE
Cosmos 1242 Rocket 3.2 18:24:08 10° N 18:27:17 31° ENE 18:27:36 30° E
YAOGAN 1 4.3 18:25:04 10° SSW 18:29:04 35° W 18:33:04 10° NNW
SJ-6B 3.0 18:25:38 10° SSE 18:29:40 55° ENE 18:33:45 10° N
Cosmos 2151 3.1 18:26:57 10° SSW 18:31:09 77° WNW 18:35:23 10° N
Cosmos 2084 Rocket 3.3 18:28:37 10° NW 18:32:20 52° NNE 18:33:53 31° E
ATLAS 3B R/B 3.6 18:26:13 10° WNW 18:32:52 37° N 18:36:51 21° ENE
HJ-1C 4.0 18:33:13 34° ENE 18:33:20 34° ENE 18:36:30 10° N
Cosmos 44 Rocket 3.5 18:28:57 10° SW 18:34:03 76° NW 18:37:35 20° NE
Cosmos 1184 Rocket 4.2 18:33:20 10° SSE 18:35:07 23° SE 18:35:07 23° SE
Abrixas 4.2 18:34:25 10° SSW 18:36:41 20° SSE 18:37:04 20° SSE
Cosmos 1666 Rocket 3.8 18:34:56 10° SSE 18:39:06 46° E 18:42:30 15° NNE
USA 215 3.6 18:32:34 10° SE 18:39:06 68° SSW 18:45:40 10° WNW
DNEPR-1 R/B 4.2 18:33:22 10° SW 18:39:46 84° NW 18:43:21 22° NE
Cosmos 1867 3.9 18:36:00 10° NW 18:41:18 47° NNE 18:43:45 29° E
Cosmos 304 Rocket 3.7 18:41:03 10° SSW 18:45:49 66° ESE 18:48:52 22° NE
SL-16 R/B 4.3 18:42:38 10° WNW 18:46:29 18° NNW 18:50:22 10° NNE
Resurs 01 Rocket 1.8 18:43:07 10° SE 18:47:23 48° ENE 18:51:42 10° N
Resurs 1-3 3.9 18:46:26 29° ESE 18:48:08 42° ENE 18:52:17 10° N
FENGYUN 3A 3.7 18:43:15 10° SE 18:48:29 56° ENE 18:53:45 10° N
BREEZE-M DEB (TANK) 4.4 18:47:32 10° S 18:48:16 13° SSE 18:48:16 13° SSE
METEOR-M 4.1 18:44:05 10° SSE 18:49:27 88° WSW 18:54:51 10° NNW
TIMED 4.5 18:45:18 10° NNW 18:49:42 85° WSW 18:54:06 10° SSE
SL-14 R/B 4.4 18:49:01 10° SSW 18:52:52 46° WNW 18:56:46 10° N
Nadezhda 4 Rocket 4.0 18:47:02 10° S 18:53:13 63° E 18:59:29 10° NNE
Lacrosse 4 Rocket 1.8 18:51:17 10° NW 18:55:18 60° WSW 18:59:18 10° SSE
Cosmos 2360 Rocket 4.0 18:50:52 10° W 18:55:23 24° NNW 18:59:55 10° NNE
Cosmos 1340 Rocket 3.0 18:52:14 10° SSW 18:56:09 69° WNW 18:59:45 12° N
Meteor 1-28 Rocket 3.0 18:54:38 22° NNE 18:56:58 85° ESE 19:00:41 10° SSW
Cosmos 1980 Rocket 4.3 18:55:22 10° NW 18:58:06 13° N 19:00:43 10° NNE
Cosmos 540 Rocket 3.9 18:53:47 10° SW 18:58:54 60° WNW 19:03:31 13° NNE
NOAA 12 4.3 18:53:49 10° S 18:59:03 71° WSW 19:04:22 10° NNW
ATLAS 5 CENTAUR R/B 2.6 18:53:39 10° NW 18:59:05 48° NNE 19:01:05 35° ENE
FREGAT/IRIS 2.8 18:57:31 10° S 19:00:33 72° WSW 19:03:39 10° NNW
Cosmos 1980 4.1 18:55:24 10° SW 19:01:03 63° NW 19:05:35 16° NNE
Cosmos 773 Rocket 4.2 18:58:25 10° S 19:03:22 46° ESE 19:04:18 42° ENE
Cosmos 1869 3.2 19:00:36 10° NNW 19:04:41 89° W 19:08:44 10° S
Cosmos 921 Rocket 3.8 19:01:39 10° NNW 19:04:52 34° NNE 19:04:52 34° NNE
Lacrosse 5 2.0 19:04:11 10° WNW 19:09:14 62° N 19:10:27 47° ENE
NOSS 0 Rocket 4.4 19:03:58 10° SW 19:10:07 59° NW 19:14:56 17° NNE
Aureole 1 Rocket 4.2 19:06:00 10° S 19:11:51 57° ESE 19:17:44 17° NNE
SKYMED 2 4.2 19:07:52 10° N 19:12:08 56° WNW 19:16:24 10° SSW
Cosmos 2242 Rocket 3.7 19:07:43 10° NNW 19:12:09 76° W 19:16:35 10° S
Spot 1 4.1 19:11:57 57° E 19:12:18 59° ENE 19:16:35 10° N
Cosmos 1553 Rocket 4.3 19:07:17 10° N 19:13:10 43° ENE 19:13:55 41° E
CENTAUR R/B 3.3 19:08:10 10° W 19:14:33 50° NNW 19:18:47 25° NE
Cosmos 1092 Rocket 3.9 19:09:05 10° S 19:15:21 67° E 19:21:39 10° NNE
Cosmos 1943 Rocket 2.5 19:11:03 10° NNW 19:16:20 42° NE 19:16:31 42° NE
Cosmos 2084 4.0 19:12:51 10° WSW 19:16:30 42° NNW 19:17:04 39° N
Cosmos 2058 4.4 19:12:44 10° SW 19:16:33 37° WNW 19:20:23 10° N
Aureole 2 Rocket 3.8 19:13:24 10° SW 19:17:14 46° WNW 19:19:23 24° N
Cosmos 1805 Rocket 4.1 19:12:59 10° SSW 19:17:23 59° WNW 19:21:49 10° N
Cosmos 2219 Rocket 3.4 19:13:20 10° WSW 19:18:36 39° NW 19:22:49 15° NNE
Cosmos 972 Rocket 3.9 19:14:08 10° NNW 19:19:16 71° ENE 19:21:24 37° SE
H-2A R/B 4.3 19:23:51 25° N 19:23:51 25° N 19:25:32 10° N
Cosmos 1461 2.7 19:18:40 10° SW 19:22:36 78° S 19:22:36 78° S
USA 229 DEB 3.9 19:17:09 10° SSW 19:23:38 47° ESE 19:24:40 44° E
USA 229 3.9 19:17:15 10° SSW 19:23:44 46° ESE 19:24:43 44° E
Cosmos 2333 Rocket 3.2 19:19:08 10° WSW 19:24:30 43° NW 19:28:28 18° NNE
Cosmos 2263 4.1 19:19:18 10° NNW 19:24:53 61° NE 19:25:38 56° E
Cosmos 1603 4.2 19:20:01 10° S 19:24:13 39° SE 19:24:13 39° SE
FengYun 1-2 T 4.3 19:20:40 10° SSE 19:26:13 77° WSW 19:31:46 10° NNW
Cosmos 44 3.9 19:21:43 10° WSW 19:26:44 53° NW 19:28:22 37° NNE
Cosmos 2322 Rocket 4.4 19:25:00 10° NW 19:28:03 14° NNW 19:30:33 11° NNE
Sich 1 3.4 19:26:27 10° SSW 19:30:51 64° WNW 19:33:44 21° N
ALOS 2.5 19:26:34 10° S 19:31:13 70° WSW 19:35:55 10° NNW
Cosmos 1626 3.2 19:30:17 10° SSW 19:33:52 44° WNW 19:35:09 31° NNW
Cosmos 1356 Rocket 4.2 19:32:50 10° SSW 19:36:43 49° WNW 19:38:04 34° NNW
Cosmos 2195 Rocket 4.3 19:32:43 10° S 19:38:46 66° E 19:44:55 10° NNE
Cosmos 1633 Rocket 3.6 19:36:34 10° SSW 19:40:55 57° WNW 19:42:50 31° N
Cosmos 2056 Rocket 3.6 19:44:44 10° NNW 19:49:07 62° N 19:49:07 62° N
Spot 2 Rocket 4.2 19:46:33 10° S 19:51:28 53° W 19:56:26 10° NNW
Helios 1A 4.2 19:53:22 37° NNW 19:53:22 37° NNW 19:56:02 10° NNW
COSMOS 2455 4.3 19:48:34 10° NW 19:53:25 24° NNE 19:53:34 24° NNE
Cosmos 2369 Rocket 2.3 19:48:40 10° NW 19:54:21 72° WSW 19:55:26 56° S
Cosmos 1624 Rocket 4.0 19:49:13 10° NNW 19:54:08 75° NNW 19:54:08 75° NNW
Cosmos 1417 Rocket 4.4 19:50:21 10° N 19:56:36 88° W 19:58:52 42° S
Cosmos 2237 Rocket 3.6 19:51:30 10° WSW 19:56:39 35° NW 19:59:31 22° N
Cosmos 1862 Rocket 4.5 19:52:52 10° NNW 19:57:07 47° W 19:58:03 40° SW
Iridium 4 Rocket 3.8 19:53:06 10° SSW 19:57:19 49° W 19:57:23 49° WNW
SL-16 R/B 2.8 19:59:03 10° SW 20:04:34 53° NW 20:06:09 41° N
Envisat 4.5 20:08:50 27° N 20:08:50 27° N 20:11:06 10° NNW
CZ-4C R/B 2.7 20:01:00 10° NW 20:07:40 69° NE 20:07:51 69° NE
Meteor 1-26 Rocket 4.3 20:06:52 10° NNW 20:12:25 73° W 20:12:25 73° W
Cosmos 1371 Rocket 4.5 20:09:13 10° NNW 20:13:55 57° W 20:13:55 57° W
Cosmos 1627 Rocket 4.5 20:08:21 10° SSW 20:14:31 77° WNW 20:20:41 10° N
BREEZE-M DEB (TANK) 4.3 20:05:01 10° W 20:17:58 55° SSW 20:18:01 55° SSW
Cosmos 839 Rocket 4.2 20:15:48 10° NW 20:21:25 62° NNW 20:21:25 62° NNW
Resurs 01 Rocket 3.7 20:20:24 10° SSW 20:24:06 25° W 20:27:50 10° NW
USA 238 DEB 4.2 20:17:42 10° NW 20:23:58 49° N 20:23:58 49° N
USA 238 4.2 20:17:48 10° NW 20:24:04 48° N 20:24:04 48° N
ATLAS 3B R/B 3.0 20:17:54 10° NW 20:24:06 54° N 20:24:06 54° N
Cosmos 1867 4.3 20:19:43 10° NW 20:24:27 50° WSW 20:24:27 50° WSW
S3M 4.2 20:24:19 10° NNW 20:30:40 68° W 20:30:47 67° WSW
SL-16 R/B 4.5 20:30:15 10° NNW 20:32:42 14° N 20:32:42 14° N
ATLAS 5 CENTAUR R/B 3.1 20:38:22 10° NW 20:42:39 49° WNW 20:42:39 49° WNW
Cosmos 1980 Rocket 4.5 20:40:56 10° NNW 20:42:29 14° N 20:42:29 14° N
Lacrosse 5 3.7 20:47:19 10° WNW 20:49:40 27° WNW 20:49:40 27° WNW
Cosmos 1943 Rocket 3.7 20:54:53 10° NW 20:58:04 32° WNW 20:58:04 32° WNW
Cosmos 2219 Rocket 4.5 21:00:44 10° WNW 21:04:12 16° NNW 21:04:33 16° NNW
CENTAUR R/B 3.8 21:00:16 10° WNW 21:05:59 38° N 21:05:59 38° N
Cosmos 2333 Rocket 4.4 21:06:37 10° WNW 21:10:20 17° NNW 21:10:29 17° NNW
CZ-4C R/B 4.3 21:49:40 10° NW 21:53:03 29° WNW 21:53:03 29° WNW
